COSMOS 249 DEB *, 6176

Orbit data source: Space-Track

COSMOS 249 DEB *, 6176 is space debris in LEO originally from a launch on Sun, 20 Oct 1968 UTC launched from the Tyuratam Missile And Space Complex (TTMTR). Debris objects in space refer to the collection of defunct objects orbiting the Earth. Examples of debris include non-operational satellites, rocket bodies, and fragments generated from explosions, collisions, or faulty payload assembly.

Loading next visibility...
Identifier
6176, 1968-091CG
Orbit
LEO
Country
Flag of CISCIS
Related business
Manufacturer
Unknown
Mission
Spacecraft
Bus & Motor
Unknown
Mass
Unknown
Launch date (UTC)
1968-10-20 (58 years ago)
Launch vehicle
Unknown
Launch site
Tyuratam Missile And Space Complex (TTMTR)
Object type
Payload
Rocket body
Debris
Shape & HBR
Unknown shape, 0.1 m
Radar Cross Section
Medium (>0.1 m² and <1 m²)

Expand to show TLE details & history
Last TLE update: 11 hours ago

TLE from 11 hours ago
0 COSMOS 249 DEB *
1 06176U 68091CG  26202.24796978  .00000187  00000-0  44503-3 0  9993
2 06176  65.7273 152.4834 0461678  25.0851 337.1852 13.08543171163644
Epoch: 2026-07-21T05:57Z
TLE epoch observation values (Epoch: 2026-07-21T05:57:04.588Z)
Latitude
0.00001°
Longitude
124.19389°
Altitude
909.563 km
Speed
7.552 km/s
True Right ascension
10h 09m 56s
True Declination
0° 00' 00"
Sunlit
Object was in daylight at epoch
Visualization orbit readout
Latitude
Unknown
Longitude
Unknown
Altitude
Unknown
Speed
Unknown
Apparent Right ascension
Unknown
Apparent Declination
Unknown
Sunlit
N/A
Visualization observer readout
Local Sidereal Time
05:48:42
Azimuth
Unknown
Elevation
Unknown
Doppler factor
Unknown
Orbital elements
Apogee altitude
1,578.502 km
Perigee altitude
876.243 km
Semi-major axis
7,605.51 km
Eccentricity
0.04617
Inclination
65.7273°
RAAN
152.4834°
Arg. of periapsis
25.0851°
True anomaly
335.01936°
Mean anomaly
337.1852°
Eccentric anomaly
336.11411°
Mean motion
3.27228 °/min
Orbital period
110.01 mins
BSTAR
0.00044503
Loading maneuver chart data...
Computing Atmospheric mass density...

Documentation

Showing up to 5 results
|